Location: Vibo Valentia
(38.6670°N, 16.1000°E)
Time: 10:55:47
(UTC+02:00)

STARLINK-1353 - Pass Details

Date: 05 October 2020
Orbit: 530 x 533 km, 53.0° (Epoch: 22 October)

Event Time Altitude Azimuth Distance (km) Brightness Sun altitude
Exits shadow 05:06:16 11° 343° (NNW) 1,700 6.1 -22.0°
Maximum altitude 05:06:45 12° 351° (N) 1,689 6.1 -21.9°
Drops below altitude 10° 05:08:10 10° 11° (NNE) 1,786 6.5 -21.7°
Sets 05:11:52 0° 46° (NE) 2,678 8.1 -21.0°
